Location: Austin
(30.3000°N, 97.7500°W)
Time: 02:48:33
(UTC-05:00)

GEOS 3 Rocket - Pass Details

Date: 15 May 2024
Orbit: 781 x 835 km, 115.0° (Epoch: 29 May)

Event Time Altitude Azimuth Distance (km) Brightness Sun altitude
Rises 21:48:32 0° 28° (NNE) 3,312 6.9 -17.8°
Reaches altitude 10° 21:50:51 10° 25° (NNE) 2,372 6.2 -18.2°
Maximum altitude 21:55:57 67° 304° (NW) 854 3.9 -19.0°
Drops below altitude 10° 22:00:57 10° 222° (SW) 2,334 6.0 -19.9°
Sets 22:03:13 0° 220° (SW) 3,255 6.8 -20.3°
